Time,TemperatureF,DewpointF,PressureIn,WindDirection,WindDirectionDegrees,WindSpeedMPH,WindSpeedGustMPH,Humidity,HourlyPrecipIn,Conditions,Clouds,dailyrainin,SolarRadiationWatts/m^2,SoftwareType,DateUTC
2013-01-19 00:13:00,38.3,30.0,30.36,SSE,168,2.0,3.0,71,0.00,,,0.00,0,weatherlink.com 1.10,2013-01-19 06:13:00,
2013-01-19 00:28:00,38.0,30.0,30.36,SSE,168,1.0,3.0,72,0.00,,,0.00,0,weatherlink.com 1.10,2013-01-19 06:28:00,
2013-01-19 00:43:00,38.0,30.0,30.36,SSE,168,1.0,4.0,73,0.00,,,0.00,0,weatherlink.com 1.10,2013-01-19 06:43:00,
2013-01-19 00:58:00,38.0,30.0,30.36,SSE,166,3.0,5.0,73,0.00,,,0.00,0,weatherlink.com 1.10,2013-01-19 06:58:00,
2013-01-19 01:13:00,37.8,30.0,30.36,SSE,162,2.0,5.0,74,0.00,,,0.00,0,weatherlink.com 1.10,2013-01-19 07:13:00,
2013-01-19 01:28:00,37.9,30.0,30.36,SSE,160,2.0,4.0,74,0.00,,,0.00,0,weatherlink.com 1.10,2013-01-19 07:28:00,
2013-01-19 01:43:00,38.3,31.0,30.35,SSE,162,3.0,6.0,74,0.00,,,0.00,0,weatherlink.com 1.10,2013-01-19 07:43:00,
2013-01-19 01:58:00,38.8,30.0,30.35,South,175,3.0,6.0,72,0.00,,,0.00,0,weatherlink.com 1.10,2013-01-19 07:58:00,
2013-01-19 02:13:00,39.1,31.0,30.35,South,173,3.0,6.0,72,0.00,,,0.00,0,weatherlink.com 1.10,2013-01-19 08:13:00,
2013-01-19 02:28:00,39.5,31.0,30.35,South,170,2.0,6.0,71,0.00,,,0.00,0,weatherlink.com 1.10,2013-01-19 08:28:00,
2013-01-19 02:43:00,39.6,31.0,30.34,South,185,2.0,6.0,70,0.00,,,0.00,0,weatherlink.com 1.10,2013-01-19 08:43:00,
2013-01-19 02:58:00,39.6,30.0,30.34,South,183,2.0,6.0,69,0.00,,,0.00,0,weatherlink.com 1.10,2013-01-19 08:58:00,
2013-01-19 03:13:00,39.5,30.0,30.34,South,185,2.0,5.0,69,0.00,,,0.00,0,weatherlink.com 1.10,2013-01-19 09:13:00,
2013-01-19 03:28:00,39.5,30.0,30.34,SSE,160,3.0,6.0,69,0.00,,,0.00,0,weatherlink.com 1.10,2013-01-19 09:28:00,
2013-01-19 03:43:00,39.3,30.0,30.34,SSE,155,6.0,6.0,69,0.00,,,0.00,0,weatherlink.com 1.10,2013-01-19 09:43:00,
2013-01-19 03:58:00,39.6,30.0,30.33,South,171,2.0,7.0,69,0.00,,,0.00,0,weatherlink.com 1.10,2013-01-19 09:58:00,
2013-01-19 04:13:00,39.4,30.0,30.33,SSE,151,4.0,6.0,70,0.00,,,0.00,0,weatherlink.com 1.10,2013-01-19 10:13:00,
2013-01-19 04:28:00,39.3,30.0,30.33,South,177,6.0,8.0,70,0.00,,,0.00,0,weatherlink.com 1.10,2013-01-19 10:28:00,
2013-01-19 04:43:00,39.1,30.0,30.33,South,178,3.0,7.0,71,0.00,,,0.00,0,weatherlink.com 1.10,2013-01-19 10:43:00,
2013-01-19 04:58:00,39.0,30.0,30.33,SSE,163,5.0,8.0,71,0.00,,,0.00,0,weatherlink.com 1.10,2013-01-19 10:58:00,
2013-01-19 05:13:00,38.8,30.0,30.33,SSE,159,2.0,8.0,72,0.00,,,0.00,0,weatherlink.com 1.10,2013-01-19 11:13:00,
2013-01-19 06:58:00,37.3,30.0,30.32,South,178,2.0,6.0,74,0.00,,,0.00,0,weatherlink.com 1.10,2013-01-19 12:58:00,
2013-01-19 07:15:00,37.1,30.0,30.32,South,169,5.0,6.0,74,0.00,,,0.00,9,weatherlink.com 1.10,2013-01-19 13:15:00,
2013-01-19 07:29:00,37.2,30.0,30.32,SSE,166,4.0,8.0,75,0.00,,,0.00,16,weatherlink.com 1.10,2013-01-19 13:29:00,
2013-01-19 07:45:00,38.2,30.0,30.32,South,180,5.0,8.0,73,0.00,,,0.00,47,weatherlink.com 1.10,2013-01-19 13:45:00,
2013-01-19 08:00:00,39.3,31.0,30.32,SSE,161,5.0,8.0,72,0.00,,,0.00,93,weatherlink.com 1.10,2013-01-19 14:00:00,
2013-01-19 08:15:00,40.5,31.0,30.33,SSE,162,6.0,10.0,70,0.00,,,0.00,144,weatherlink.com 1.10,2013-01-19 14:15:00,
2013-01-19 08:31:00,41.6,32.0,30.33,SSE,167,5.0,10.0,69,0.00,,,0.00,204,weatherlink.com 1.10,2013-01-19 14:31:00,
2013-01-19 08:47:00,42.7,33.0,30.34,South,170,6.0,8.0,68,0.00,,,0.00,258,weatherlink.com 1.10,2013-01-19 14:47:00,
2013-01-19 09:01:00,43.6,33.0,30.34,South,187,7.0,10.0,66,0.00,,,0.00,297,weatherlink.com 1.10,2013-01-19 15:01:00,
2013-01-19 09:16:00,44.6,34.0,30.34,South,187,6.0,10.0,66,0.00,,,0.00,343,weatherlink.com 1.10,2013-01-19 15:16:00,
2013-01-19 09:31:00,45.8,34.0,30.34,South,183,4.0,9.0,63,0.00,,,0.00,381,weatherlink.com 1.10,2013-01-19 15:31:00,
2013-01-19 09:46:00,46.8,34.0,30.35,SW,229,5.0,11.0,61,0.00,,,0.00,422,weatherlink.com 1.10,2013-01-19 15:46:00,
2013-01-19 10:01:00,47.6,34.0,30.34,South,182,4.0,11.0,60,0.00,,,0.00,448,weatherlink.com 1.10,2013-01-19 16:01:00,
2013-01-19 10:17:00,48.9,35.0,30.34,South,185,6.0,11.0,59,0.00,,,0.00,466,weatherlink.com 1.10,2013-01-19 16:17:00,
2013-01-19 10:32:00,49.8,34.0,30.34,SW,234,8.0,13.0,55,0.00,,,0.00,515,weatherlink.com 1.10,2013-01-19 16:32:00,
2013-01-19 10:47:00,51.0,34.0,30.33,South,187,6.0,14.0,52,0.00,,,0.00,529,weatherlink.com 1.10,2013-01-19 16:47:00,
2013-01-19 11:02:00,52.1,33.0,30.33,WSW,250,8.0,14.0,49,0.00,,,0.00,548,weatherlink.com 1.10,2013-01-19 17:02:00,
2013-01-19 11:17:00,53.0,34.0,30.32,SSW,211,7.0,16.0,48,0.00,,,0.00,559,weatherlink.com 1.10,2013-01-19 17:17:00,
2013-01-19 11:47:00,54.3,33.0,30.30,SW,232,5.0,11.0,44,0.00,,,0.00,585,weatherlink.com 1.10,2013-01-19 17:47:00,
2013-01-19 12:02:00,54.0,33.0,30.29,WSW,253,8.0,13.0,46,0.00,,,0.00,584,weatherlink.com 1.10,2013-01-19 18:02:00,
2013-01-19 12:17:00,54.2,33.0,30.27,South,169,8.0,18.0,44,0.00,,,0.00,584,weatherlink.com 1.10,2013-01-19 18:17:00,
2013-01-19 12:47:00,54.3,33.0,30.26,WSW,246,5.0,13.0,45,0.00,,,0.00,571,weatherlink.com 1.10,2013-01-19 18:47:00,
2013-01-19 13:17:00,54.8,34.0,30.25,WSW,247,9.0,16.0,45,0.00,,,0.00,545,weatherlink.com 1.10,2013-01-19 19:17:00,
2013-01-19 13:32:00,55.1,36.0,30.24,SW,236,8.0,14.0,48,0.00,,,0.00,527,weatherlink.com 1.10,2013-01-19 19:32:00,
2013-01-19 13:47:00,55.1,35.0,30.23,SSW,205,7.0,15.0,47,0.00,,,0.00,503,weatherlink.com 1.10,2013-01-19 19:47:00,
2013-01-19 14:02:00,55.3,35.0,30.22,South,185,10.0,15.0,46,0.00,,,0.00,475,weatherlink.com 1.10,2013-01-19 20:02:00,
2013-01-19 14:17:00,55.9,34.0,30.22,SW,229,9.0,14.0,44,0.00,,,0.00,450,weatherlink.com 1.10,2013-01-19 20:17:00,
2013-01-19 14:32:00,56.3,35.0,30.22,South,176,9.0,13.0,45,0.00,,,0.00,404,weatherlink.com 1.10,2013-01-19 20:32:00,
2013-01-19 15:03:00,56.1,35.0,30.22,SSW,207,4.0,13.0,45,0.00,,,0.00,318,weatherlink.com 1.10,2013-01-19 21:03:00,
2013-01-19 15:32:00,55.3,35.0,30.22,South,189,6.0,13.0,46,0.00,,,0.00,153,weatherlink.com 1.10,2013-01-19 21:32:00,
2013-01-19 15:47:00,55.2,35.0,30.21,WSW,245,4.0,10.0,47,0.00,,,0.00,160,weatherlink.com 1.10,2013-01-19 21:47:00,
2013-01-19 16:03:00,54.7,35.0,30.21,WSW,238,4.0,8.0,48,0.00,,,0.00,84,weatherlink.com 1.10,2013-01-19 22:03:00,
2013-01-19 16:48:00,52.8,34.0,30.20,South,187,8.0,10.0,50,0.00,,,0.00,16,weatherlink.com 1.10,2013-01-19 22:48:00,
2013-01-19 17:03:00,52.0,35.0,30.20,SSW,213,8.0,11.0,52,0.00,,,0.00,9,weatherlink.com 1.10,2013-01-19 23:03:00,
2013-01-19 17:18:00,51.2,34.0,30.20,SSW,193,4.0,8.0,53,0.00,,,0.00,0,weatherlink.com 1.10,2013-01-19 23:18:00,
2013-01-19 17:48:00,49.6,33.0,30.19,South,189,3.0,7.0,54,0.00,,,0.00,0,weatherlink.com 1.10,2013-01-19 23:48:00,
2013-01-19 18:18:00,48.8,34.0,30.19,South,180,3.0,6.0,57,0.00,,,0.00,0,weatherlink.com 1.10,2013-01-20 00:18:00,
2013-01-19 18:48:00,48.5,35.0,30.20,South,183,4.0,8.0,61,0.00,,,0.00,0,weatherlink.com 1.10,2013-01-20 00:48:00,
2013-01-19 19:03:00,48.1,36.0,30.20,SSW,196,7.0,8.0,63,0.00,,,0.00,0,weatherlink.com 1.10,2013-01-20 01:03:00,
2013-01-19 19:33:00,48.0,37.0,30.20,SSW,194,4.0,9.0,65,0.00,,,0.00,0,weatherlink.com 1.10,2013-01-20 01:33:00,
2013-01-19 19:48:00,47.6,37.0,30.21,South,189,3.0,7.0,66,0.00,,,0.00,0,weatherlink.com 1.10,2013-01-20 01:48:00,
2013-01-19 20:18:00,46.8,37.0,30.21,SSW,198,5.0,8.0,68,0.00,,,0.00,0,weatherlink.com 1.10,2013-01-20 02:18:00,
2013-01-19 20:48:00,46.1,37.0,30.21,South,187,3.0,7.0,70,0.00,,,0.00,0,weatherlink.com 1.10,2013-01-20 02:48:00,
2013-01-19 21:18:00,45.5,37.0,30.21,SSW,193,2.0,5.0,71,0.00,,,0.00,0,weatherlink.com 1.10,2013-01-20 03:18:00,
2013-01-19 21:33:00,45.6,37.0,30.21,SSW,208,1.0,5.0,71,0.00,,,0.00,0,weatherlink.com 1.10,2013-01-20 03:33:00,
2013-01-19 22:03:00,44.9,36.0,30.22,SSW,202,0.0,1.0,72,0.00,,,0.00,0,weatherlink.com 1.10,2013-01-20 04:03:00,
2013-01-19 22:18:00,44.4,36.0,30.22,South,191,2.0,3.0,73,0.00,,,0.00,0,weatherlink.com 1.10,2013-01-20 04:18:00,
2013-01-19 22:33:00,44.0,36.0,30.23,SSW,208,1.0,3.0,74,0.00,,,0.00,0,weatherlink.com 1.10,2013-01-20 04:33:00,
2013-01-19 22:48:00,44.3,37.0,30.23,SSW,209,0.0,4.0,74,0.00,,,0.00,0,weatherlink.com 1.10,2013-01-20 04:48:00,
2013-01-19 23:03:00,44.7,37.0,30.22,SW,219,5.0,9.0,73,0.00,,,0.00,0,weatherlink.com 1.10,2013-01-20 05:03:00,
2013-01-19 23:18:00,45.3,37.0,30.22,SW,232,2.0,8.0,73,0.00,,,0.00,0,weatherlink.com 1.10,2013-01-20 05:18:00,
2013-01-19 23:33:00,45.2,37.0,30.22,SSW,209,5.0,8.0,73,0.00,,,0.00,0,weatherlink.com 1.10,2013-01-20 05:33:00,
2013-01-19 23:48:00,45.0,37.0,30.22,West,279,3.0,7.0,74,0.00,,,0.00,0,weatherlink.com 1.10,2013-01-20 05:48:00,